Boonville, MO

2:28 AM CDT on April 24, 2017 (GMT -0500)
Viertel Memorial

Weather History for KVER - February, 2014

Change the Weather History Date:

Tuesday, February 18, 2014

  Actual Average Record
Temperature  
Mean Temperature 48 °F -  
Max Temperature 62 °F 42 °F 70 °F (2016)
Min Temperature 35 °F 24 °F -6 °F (1958)
Degree Days  
Heating Degree Days 16    
Moisture  
Dew Point 27 °F    
Average Humidity 45    
Maximum Humidity 67    
Minimum Humidity 26    
Precipitation  
Precipitation 0.00 in - - ()
Sea Level Pressure  
Sea Level Pressure 29.85 in    
Wind  
Wind Speed 8 mph (SSW)    
Max Wind Speed 17 mph    
Max Gust Speed 28 mph    
Visibility 10 miles    
Events      
Averages and records for this station are not official NWS values.
T = Trace of Precipitation, MM = Missing Value Source: NWS Daily Summary

Daily Weather History Graph

Daily Weather History Graph

Search for Another Location

Airport or City:

Trip Planner

Search our weather history database for the weather conditions in past years. The results will help you decide how hot, cold, wet, or windy it might be!

Date:

Astronomy

Feb. 18, 2014 Rise Set
Actual Time 6:58 AM CST 5:51 PM CST
Civil Twilight 6:31 AM CST 6:18 PM CST
Nautical Twilight 5:59 AM CST 6:49 PM CST
Astronomical Twilight 5:29 AM CST 7:20 PM CST
Moon 9:43 PM CST (2/18) 8:33 AM CST (2/18)
Length of Visible Light 11h 47m
Length of Day
10h 53m
Waning Gibbous, 87% of the Moon is Illuminated
Feb 18
Waning Gibbous
Feb 22
Last Quarter
Mar 1
New
Mar 8
First Quarter
Mar 16
Full

Hourly Weather History & Observations

Time (CST) Temp. Windchill Dew Point Humidity Pressure Visibility Wind Dir Wind Speed Gust Speed Precip Events Conditions
12:15 AM 39.4 °F 35.2 °F 24.4 °F 55% 30.01 in 10.0 mi SSW 5.8 mph - N/A   Clear
12:35 AM 39.0 °F 34.8 °F 24.4 °F 56% 30.00 in 10.0 mi SSW 5.8 mph - N/A   Clear
12:55 AM 39.0 °F 34.8 °F 23.9 °F 55% 30.00 in 10.0 mi SSW 5.8 mph - N/A   Clear
1:15 AM 39.6 °F 35.4 °F 23.5 °F 53% 30.00 in 10.0 mi SSW 5.8 mph - N/A   Clear
1:35 AM 39.4 °F 35.2 °F 23.4 °F 53% 30.00 in 10.0 mi SSW 5.8 mph - N/A   Clear
1:55 AM 39.4 °F 34.5 °F 23.0 °F 52% 30.00 in 10.0 mi SSW 6.9 mph - N/A   Clear
2:15 AM 39.7 °F - 23.2 °F 52% 29.99 in 10.0 mi Calm Calm - N/A   Clear
2:35 AM 39.7 °F 35.6 °F 23.4 °F 52% 29.99 in 10.0 mi SSW 5.8 mph - N/A   Clear
2:55 AM 39.4 °F 35.2 °F 23.5 °F 53% 29.98 in 10.0 mi SSW 5.8 mph - N/A   Clear
3:15 AM 39.4 °F 35.2 °F 23.7 °F 54% 29.98 in 10.0 mi SSW 5.8 mph - N/A   Clear
3:35 AM 40.1 °F - 23.5 °F 52% 29.98 in 10.0 mi Calm Calm - N/A   Clear
3:55 AM 39.6 °F 35.4 °F 23.7 °F 53% 29.96 in 10.0 mi South 5.8 mph - N/A   Clear
4:15 AM 38.5 °F 32.7 °F 24.4 °F 57% 29.96 in 10.0 mi South 8.1 mph - N/A   Clear
4:35 AM 37.6 °F 31.6 °F 25.0 °F 60% 29.94 in 10.0 mi South 8.1 mph - N/A   Clear
4:55 AM 38.8 °F 33.8 °F 25.5 °F 59% 29.94 in 10.0 mi South 6.9 mph - N/A   Clear
5:15 AM 39.9 °F 33.9 °F 25.7 °F 57% 29.93 in 10.0 mi South 9.2 mph - N/A   Clear
5:35 AM 40.1 °F 35.3 °F 25.9 °F 57% 29.93 in 10.0 mi South 6.9 mph - N/A   Clear
5:55 AM 40.3 °F 34.9 °F 26.1 °F 57% 29.92 in 10.0 mi South 8.1 mph - N/A   Clear
6:15 AM 39.9 °F - 25.7 °F 57% 29.91 in 10.0 mi Calm Calm - N/A   Clear
6:35 AM 37.8 °F 31.8 °F 25.5 °F 61% 29.90 in 10.0 mi SSE 8.1 mph - N/A   Clear
6:55 AM 35.4 °F 28.4 °F 25.3 °F 67% 29.90 in 10.0 mi South 9.2 mph - N/A   Clear
7:15 AM 36.3 °F 30.8 °F 25.5 °F 65% 29.91 in 10.0 mi South 6.9 mph - N/A   Clear
7:35 AM 37.4 °F 31.4 °F 25.7 °F 63% 29.90 in 10.0 mi South 8.1 mph - N/A   Clear
7:55 AM 38.7 °F 32.4 °F 26.4 °F 61% 29.90 in 10.0 mi South 9.2 mph - N/A   Clear
8:15 AM 39.4 °F 33.2 °F 27.3 °F 62% 29.90 in 10.0 mi South 9.2 mph - N/A   Clear
8:35 AM 40.3 °F 34.4 °F 27.5 °F 60% 29.89 in 10.0 mi South 9.2 mph - N/A   Clear
8:55 AM 42.6 °F 37.8 °F 26.8 °F 54% 29.89 in 10.0 mi South 8.1 mph - N/A   Clear
9:15 AM 44.1 °F 38.6 °F 27.3 °F 52% 29.88 in 10.0 mi South 10.4 mph - N/A   Clear
9:35 AM 44.4 °F 37.5 °F 27.9 °F 52% 29.86 in 10.0 mi South 15.0 mph - N/A   Clear
9:55 AM 46.0 °F 41.4 °F 27.7 °F 49% 29.86 in 10.0 mi South 9.2 mph - N/A   Clear
10:15 AM 47.3 °F - 27.5 °F 46% 29.86 in 10.0 mi South 8.1 mph - N/A   Clear
10:35 AM 48.2 °F - 28.0 °F 46% 29.86 in 10.0 mi South 11.5 mph 16.1 mph N/A   Clear
10:55 AM 50.2 °F - 28.0 °F 42% 29.85 in 10.0 mi South 10.4 mph 16.1 mph N/A   Clear
11:15 AM 52.2 °F - 28.2 °F 40% 29.85 in 10.0 mi South 9.2 mph 16.1 mph N/A   Clear
11:35 AM 53.8 °F - 29.5 °F 39% 29.83 in 10.0 mi South 10.4 mph 19.6 mph N/A   Clear
11:55 AM 55.2 °F - 30.2 °F 38% 29.81 in 10.0 mi South 11.5 mph 16.1 mph N/A   Clear
12:15 PM 57.4 °F - 28.6 °F 33% 29.80 in 10.0 mi SSW 15.0 mph 21.9 mph N/A   Clear
12:35 PM 58.3 °F - 28.0 °F 32% 29.79 in 10.0 mi SSW 11.5 mph 17.3 mph N/A   Clear
12:55 PM 58.1 °F - 26.4 °F 30% 29.77 in 10.0 mi SSW 11.5 mph 19.6 mph N/A   Clear
1:15 PM 59.0 °F - 27.1 °F 30% 29.75 in 10.0 mi South 11.5 mph 19.6 mph N/A   Clear
1:35 PM 60.4 °F - 28.0 °F 29% 29.73 in 10.0 mi SSW 11.5 mph 17.3 mph N/A   Clear
1:55 PM 61.2 °F - 25.9 °F 26% 29.73 in 10.0 mi SW 17.3 mph 26.5 mph N/A   Clear
2:15 PM 61.5 °F - 26.2 °F 26% 29.73 in 10.0 mi SW 11.5 mph 19.6 mph N/A   Clear
2:35 PM 61.7 °F - 26.1 °F 26% 29.73 in 10.0 mi SW 13.8 mph 19.6 mph N/A   Clear
2:55 PM 62.2 °F - 27.1 °F 26% 29.71 in 10.0 mi SW 11.5 mph 21.9 mph N/A   Clear
3:15 PM 62.8 °F - 27.9 °F 27% 29.72 in 10.0 mi SW 10.4 mph 18.4 mph N/A   Clear
3:35 PM 62.6 °F - 27.9 °F 27% 29.74 in 10.0 mi SW 8.1 mph 17.3 mph N/A   Clear
3:55 PM 62.8 °F - 28.8 °F 28% 29.74 in 10.0 mi WSW 9.2 mph - N/A   Clear
4:15 PM 62.2 °F - 28.4 °F 28% 29.74 in 10.0 mi WSW 9.2 mph 17.3 mph N/A   Clear
4:35 PM 61.5 °F - 28.9 °F 29% 29.74 in 10.0 mi WSW 9.2 mph - N/A   Clear
4:55 PM 61.0 °F - 29.3 °F 30% 29.74 in 10.0 mi SW 8.1 mph - N/A   Clear
5:15 PM 60.4 °F - 29.1 °F 31% 29.74 in 10.0 mi SW 6.9 mph - N/A   Clear
5:35 PM 59.0 °F - 29.1 °F 32% 29.74 in 10.0 mi SW 6.9 mph - N/A   Clear
5:55 PM 57.0 °F - 29.3 °F 35% 29.74 in 10.0 mi SW 4.6 mph - N/A   Clear
6:15 PM 54.9 °F - 29.7 °F 38% 29.75 in 10.0 mi SSW 5.8 mph - N/A   Clear
6:35 PM 54.3 °F - 29.8 °F 39% 29.75 in 10.0 mi SSW 6.9 mph - N/A   Clear
6:55 PM 54.0 °F - 29.5 °F 39% 29.75 in 10.0 mi SSW 8.1 mph - N/A   Clear
7:15 PM 52.7 °F - 29.3 °F 41% 29.75 in 10.0 mi SSW 5.8 mph - N/A   Clear
7:35 PM 52.3 °F - 29.1 °F 41% 29.76 in 10.0 mi SSW 6.9 mph - N/A   Clear
7:55 PM 52.0 °F - 29.1 °F 41% 29.75 in 10.0 mi SSW 8.1 mph - N/A   Clear
8:15 PM 52.7 °F - 28.9 °F 40% 29.76 in 10.0 mi SW 6.9 mph - N/A   Clear
8:35 PM 52.9 °F - 28.8 °F 40% 29.76 in 10.0 mi SW 9.2 mph - N/A   Clear
8:55 PM 52.2 °F - 29.3 °F 41% 29.77 in 10.0 mi WSW 8.1 mph - N/A   Clear
9:15 PM 51.4 °F - 29.5 °F 43% 29.78 in 10.0 mi WSW 9.2 mph - N/A   Clear
9:35 PM 50.7 °F - 30.0 °F 45% 29.79 in 10.0 mi WSW 10.4 mph - N/A   Clear
9:55 PM 51.8 °F - 29.5 °F 42% 29.82 in 10.0 mi WNW 9.2 mph 18.4 mph N/A   Clear
10:15 PM 52.5 °F - 30.2 °F 42% 29.84 in 10.0 mi NW 16.1 mph 27.6 mph N/A   Clear
10:35 PM 49.8 °F - 31.6 °F 50% 29.85 in 10.0 mi NNW 12.7 mph - N/A   Clear
10:55 PM 48.0 °F - 31.8 °F 54% 29.86 in 10.0 mi NNW 9.2 mph 16.1 mph N/A   Clear
11:35 PM 46.0 °F 41.9 °F 31.1 °F 56% 29.89 in 10.0 mi NW 8.1 mph - N/A   Clear
11:55 PM 45.3 °F 39.7 °F 31.1 °F 58% 29.90 in 10.0 mi NW 11.5 mph - N/A   Clear